Weather WX

World > North America > United States > Wisconsin

Mellen, Wisconsin Regional Weather

Lat: 46.32N, Lon: 90.66W
Wx Zone: WIZ003
Warning FLW WEATHER ALERT - (More Info. Click Here) Warning
Feedback

Mellen, WI Regional Weather

Expires:201907190900;;291004
ASUS43 KMKX 190811
RWRWI 

WISCONSIN REGIONAL WEATHER ROUNDUP
NATIONAL WEATHER SERVICE MILWAUKEE/SULLIVAN WI
300 AM CDT FRI JUL 19 2019

NOTE: "FAIR" INDICATES FEW OR NO CLOUDS BELOW 12,000 FEET WITH NO
SIGNIFICANT WEATHER AND/OR OBSTRUCTIONS TO VISIBILITY.


WIZ003>005-009-010-017-018-190900-
NORTH CENTRAL WISCONSIN
  
CITY           SKY/WX    TMP DP  RH WIND       PRES   REMARKS
MANITOWISH WTR FOG       68  68 100 CALM      29.73R VSB 1/4          
ARBOR VITAE    HAZE      72  67  84 CALM      29.73R VSB 1/4          
WOODRUFF       HAZE      72  67  84 CALM      29.73R VSB 1/4          
RHINELANDER    CLOUDY    72  71  97 SW6       29.74S FOG              
EAGLE RIVER    CLOUDY    70  70 100 SW5       29.72S FOG              
LAND O LAKES   FOG       69  69 100 CALM      29.74S VSB 1/4          
PHILLIPS       FOG       67  67 100 S5        29.73R VSB 1/4          
TOMAHAWK       CLOUDY    67  66  97 CALM      29.74R FOG              
MEDFORD        FOG       68  68  99 CALM      29.72S VSB 1/2          
MERRILL        FOG       69  69 100 CALM      29.73R VSB 1            
$$
 

SKY/WX - Weather  TMP - Temperature  DP - Dew Point  RH - Relative Humidity
WIND - Wind Direction/Speed PRES - Barometric Pressure VSB - Visibility
WCI - Wind Chill Index E13G22 Wind - East Wind 13 mph/Gusts of 22 mph